Probability
0 0 0 0 0 0 0 0 0 0 0 0 0 0 0 0 0 0 0 0 0 0 0 0 0 0 0 0 0 0 0 0 0 0 0 0 0 0 0 0 0 0 0 0
0 0 0 0 0 0 0 0 0 0 0 0 0 0 0 0 0 0 0 0 0 0 0 0 0 0 0 0 0 0 0 0 0 0 0 0 0 0 0 0 0 0 0 0
0 0 0 0 0 0 0 0 0 0 0 0 0 0 0 0 0 0 0 0 0 0 0 0 0 0 0 0 0 0 0 0 0 0 0 0 0 0 0 0 0 0 0 0
0 0 0 0 0 0 0 0 0 0 0 0 0 0 0 0 0 0 0 0 0 0 0 0 0 0 0 0 0 0 0 0 0 0 0 0 0 0 0 0 0 0 0 0
0 0 0 0 0 0 0 0 0 0 0 0 0 0 0 0 0 0 0 0 0 0 0 0 0 0 0 0 0 0 0 0 0 0 0 0 0 0 0 0 0 0 0 0
0 0 0 0 0 0 0 0 0 0 0 0 0 0 0 0 0 0 0 0 0 0 0 0 0 0 0 0 0 0 0 0 0 0 0 0 0 0 0 0 0 0 0 0
0 0 0 0 0 0 0 0 0 0 0 0 0 0 0 0 0 0 0 0 0 0 0 0 0 0 0 0 0 0 0 0 0 0 0 0 0 0 0 0 0 0 0 0
0 0 0 0 0 0 0 0 0 0 0 0 0 0 0 0 0 0 0 0 0 0 0 0 0 0 0 0 0 0 0 0 0 0 0 0 0 0 0 0 0 0 0 0
0 0 0 0 0 0 0 0 0 0 0 0 0 0 0 0 0 0 0 0 0 0 0 0 0 0 0 0 0 0 0 0 0 0 0 0 0 0 0 0 0 0 0 0
0 0 0 0 0 0 0 0 0 0 0 0 0 0 0 0 0 0 0 0 0 0 0 0 0 0 0 0 0 0 0 0 0 0 0 0 0 0 0 0 0 0 0 0
0 0 0 0 0 0 0 0 0 0 0 0 0 0 0 0 0 0 0 0 0 0 0 0 0 0 0 0 0 0 0 0 0 0 0 0 0 0 0 0 0 0 0 0
0 0 0 0 0 0 0 0 0 0 0 0 0 0 0 0 0 0 0 0 0 0 0 0 0 0 0 0 0 0 0 0 0 0 0 0 0 0 0 0 0 0 0 0
0 0 0 0 0 0 0 0 0 0 0 0 0 0 0 0 0 0 0 0 0 0 0 0 0 0 0 0 0 0 0 0 0 0 0 0 0 0 0 0 0 0 0 0
0 0 0 0 0 0 0 0 0 0 0 0 0 0 0 0 0 0 0 0 0 0 0 0 0 0 0 0 0 0 0 0 0 0 0 0 0 0 0 0 0 0 0 0
0 0 0 0 0 0 0 0 0 0 0 0 0 0 0 0 0 0 0 0 0 0 0 0 0 0 0 0 0 0 0 0 0 0 0 0 0 0 0 0 0 0 0 0
0 0 0 0 0 0 0 0 0 0 0 0 0 0 0 0 0 0 0 0 0 0 0 0 0 0 0 0 0 0 0 0 0 0 0 0 0 0 0 0 0 0 0 0
0 0 0 0 0 0 0 0 0 0 0 0 0 0 0 0 0 0 0 0 0 0 0 0 0 0 0 0 0 0 0 0 0 0 0 0 0 0 0 0 0 0 0 0
0 0 0 0 0 0 0 0 0 0 0 0 0 0 0 0 0 0 0 0 0 0 0 0 0 0 0 0 0 0 0 0 0 0 0 0 0 0 0 0 0 0 0 0
0 0 0 0 0 0 0 0 0 0 0 0 0 0 0 0 0 0 0 0 0 0 0 0 0 0 0 0 0 0 0 0 0 0 0 0 0 0 0 0 0 0 0 0
0 0 0 0 0 0 0 0 0 0 0 0 0 0 0 0 0 0 0 0 0 0 0 0 0 0 0 0 0 0 0 0 0 0 0 0 0 0 0 0 0 0 0 0
0 0 0 0 0 0 0 0 0 0 0 0 0 0 0 0 0 0 0 0 0 0 0 0 0 0 0 0 0 0 0 0 0 0 0 0 0 0 0 0 0 0 0 0
0 0 0 0 0 0 0 0 0 0 0 0 0 0 0 0 0 0 0 0 0 0 0 0 0 0 0 0 0 0 0 0 0 0 0 0 0 0 0 0 0 0 0 0
0 0 0 0 0 0 0 0 0 0 0 0 0 0 0 0 0 0 0 0 0 0 0 0 0 0 0 0 0 0 0 0 0 0 0 0 0 0 0 0 0 0 0 0
0 0 0 0 0 0 0 0 0 0 0 0 0 0 0 0 0 0 0 0 0 0 0 0 0 0 0 0 0 0 0 0 0 0 0 0 0 0 0 0 0 0 0 0
0 0 0 0 0 0 0 0 0 0 0 0 0 0 0 0 0 0 0 0 0 0 0 0 0 0 0 0 0 0 0 0 0 0 0 0 0 0 0 0 0 0 0 0
0 0 0 0 0 0 0 0 0 0 0 0 0 0 0 0 0 0 0 0 0 0 0 0 0 0 0 0 0 0 0 0 0 0 0 0 0 0 0 0 0 0 0 0
Height
5688 5690 5692 5694 5696 5699 5701 5703 5706 5709 5712 5715 5718 5722 5725 5727 5730 5733 5736 5739 5742 5745 5747 5750 5752 5755 5757 5759 5760 5761 5762 5762 5763 5763 5763 5763 5763 5763 5762 5762 5762 5761 5761 5760
5689 5691 5692 5693 5695 5697 5699 5701 5704 5706 5708 5711 5714 5717 5720 5723 5725 5728 5731 5733 5736 5739 5741 5744 5746 5748 5750 5752 5753 5754 5754 5755 5755 5755 5756 5756 5756 5755 5754 5754 5753 5753 5752 5751
5690 5691 5691 5693 5694 5696 5698 5700 5702 5704 5706 5708 5711 5714 5716 5718 5721 5723 5726 5728 5730 5733 5735 5737 5739 5741 5743 5744 5745 5746 5747 5747 5747 5747 5748 5748 5748 5747 5746 5746 5745 5744 5743 5742
5690 5690 5691 5692 5693 5695 5696 5698 5700 5702 5704 5705 5708 5710 5713 5714 5716 5718 5721 5723 5725 5727 5729 5730 5732 5734 5735 5736 5738 5739 5739 5739 5740 5739 5740 5740 5739 5739 5738 5738 5737 5735 5734 5733
5690 5691 5691 5692 5693 5694 5695 5696 5698 5700 5701 5703 5704 5706 5710 5710 5712 5714 5716 5717 5719 5721 5722 5723 5725 5726 5728 5729 5730 5731 5732 5732 5732 5732 5732 5731 5731 5731 5730 5729 5728 5727 5726 5724
5691 5691 5691 5692 5692 5693 5694 5695 5696 5697 5698 5701 5701 5702 5705 5706 5708 5709 5710 5712 5713 5714 5715 5717 5718 5719 5720 5722 5722 5723 5724 5724 5724 5724 5724 5723 5723 5722 5722 5721 5720 5718 5717 5716
5691 5691 5691 5691 5692 5692 5693 5694 5695 5695 5696 5698 5698 5699 5702 5702 5704 5704 5705 5707 5707 5708 5709 5710 5711 5712 5713 5714 5715 5715 5716 5716 5716 5716 5715 5715 5714 5714 5713 5712 5711 5710 5709 5707
5691 5691 5690 5690 5690 5691 5691 5692 5693 5694 5694 5695 5695 5696 5698 5698 5699 5699 5700 5701 5702 5702 5703 5703 5704 5705 5706 5706 5707 5707 5708 5708 5708 5707 5707 5706 5706 5705 5704 5703 5702 5701 5700 5698
5689 5690 5689 5689 5689 5689 5689 5690 5690 5691 5691 5692 5692 5693 5694 5694 5695 5695 5696 5696 5696 5697 5697 5697 5697 5698 5698 5698 5699 5699 5699 5699 5699 5699 5698 5698 5697 5696 5695 5694 5693 5692 5691 5689
5688 5688 5688 5688 5687 5687 5688 5687 5688 5688 5687 5688 5689 5689 5690 5690 5690 5690 5690 5690 5690 5691 5691 5691 5691 5690 5690 5690 5690 5690 5690 5690 5690 5690 5689 5689 5688 5687 5687 5685 5684 5683 5682 5680
5687 5687 5687 5686 5685 5685 5685 5685 5684 5685 5685 5684 5684 5688 5686 5685 5685 5685 5685 5684 5684 5684 5684 5683 5683 5683 5682 5682 5682 5682 5681 5681 5681 5681 5680 5680 5679 5679 5678 5676 5675 5674 5672 5671
5685 5684 5684 5684 5683 5682 5682 5682 5682 5682 5682 5680 5680 5685 5681 5680 5679 5679 5679 5679 5678 5677 5677 5676 5675 5675 5674 5674 5674 5673 5673 5673 5673 5672 5672 5671 5671 5670 5669 5668 5666 5665 5663 5662
5682 5682 5681 5681 5682 5681 5679 5679 5678 5678 5677 5677 5676 5680 5676 5675 5674 5674 5673 5673 5672 5671 5670 5669 5668 5667 5666 5666 5665 5665 5665 5665 5664 5664 5663 5663 5662 5661 5660 5659 5657 5656 5654 5652
5679 5679 5679 5679 5677 5676 5676 5676 5675 5674 5673 5673 5673 5673 5671 5670 5669 5669 5668 5667 5665 5664 5663 5662 5660 5659 5658 5658 5657 5657 5657 5656 5656 5655 5655 5654 5653 5652 5651 5650 5648 5646 5645 5643
5676 5676 5675 5674 5673 5672 5672 5671 5670 5669 5669 5668 5668 5667 5666 5664 5663 5663 5662 5660 5659 5658 5656 5654 5653 5652 5651 5650 5649 5649 5648 5648 5647 5647 5646 5645 5644 5643 5642 5641 5639 5637 5636 5634
5672 5672 5671 5671 5669 5667 5667 5667 5666 5665 5663 5663 5662 5662 5660 5659 5657 5656 5655 5654 5652 5650 5649 5647 5646 5644 5643 5642 5642 5641 5640 5640 5639 5638 5638 5637 5636 5635 5633 5632 5630 5628 5626 5624
5668 5667 5666 5666 5664 5663 5663 5662 5660 5659 5658 5657 5656 5656 5654 5653 5651 5650 5648 5646 5645 5643 5641 5640 5638 5637 5635 5634 5634 5633 5632 5632 5631 5630 5629 5628 5627 5626 5624 5623 5621 5619 5617 5615
5663 5661 5660 5660 5659 5658 5660 5656 5654 5653 5652 5651 5650 5649 5647 5646 5644 5643 5641 5639 5637 5635 5634 5632 5630 5628 5627 5626 5625 5625 5624 5623 5623 5622 5621 5619 5618 5617 5615 5614 5612 5610 5608 5605
5657 5656 5654 5653 5652 5652 5653 5650 5647 5646 5646 5644 5643 5641 5640 5638 5637 5636 5633 5631 5629 5628 5626 5624 5622 5621 5619 5618 5617 5617 5616 5615 5614 5613 5612 5610 5609 5608 5606 5604 5602 5600 5598 5596
5651 5649 5649 5646 5644 5645 5646 5643 5640 5640 5638 5637 5635 5634 5632 5631 5630 5629 5626 5624 5622 5620 5618 5616 5615 5613 5612 5610 5609 5609 5608 5607 5605 5604 5603 5602 5600 5598 5597 5594 5592 5590 5588 5585
5644 5642 5641 5639 5637 5637 5638 5635 5633 5633 5632 5629 5627 5625 5624 5623 5621 5620 5618 5616 5614 5612 5610 5608 5607 5606 5604 5602 5601 5600 5599 5598 5597 5595 5594 5592 5590 5589 5587 5584 5582 5580 5578 5575
5636 5634 5633 5631 5630 5632 5629 5627 5626 5625 5622 5620 5618 5617 5616 5614 5613 5611 5609 5608 5606 5604 5602 5600 5599 5597 5596 5594 5593 5592 5590 5589 5587 5586 5584 5583 5581 5579 5577 5574 5572 5569 5567 5565
5627 5626 5624 5624 5625 5623 5620 5618 5617 5615 5613 5612 5610 5609 5607 5605 5604 5602 5601 5599 5597 5596 5594 5592 5591 5589 5588 5586 5584 5583 5582 5580 5578 5577 5575 5573 5571 5569 5567 5564 5562 5559 5556 5554
5618 5616 5615 5614 5615 5614 5611 5609 5607 5605 5604 5602 5601 5599 5598 5596 5595 5593 5591 5590 5589 5587 5585 5584 5582 5581 5580 5578 5576 5574 5573 5571 5569 5567 5565 5563 5561 5559 5556 5554 5551 5548 5546 5543
5609 5606 5605 5605 5605 5603 5602 5599 5598 5596 5594 5593 5591 5590 5588 5586 5585 5583 5582 5581 5580 5578 5577 5575 5574 5572 5571 5569 5568 5566 5563 5561 5559 5557 5555 5553 5551 5549 5546 5543 5540 5537 5534 5531
5600 5596 5594 5594 5594 5591 5591 5589 5587 5586 5585 5583 5581 5580 5578 5576 5575 5573 5572 5571 5570 5569 5568 5566 5565 5563 5562 5560 5558 5556 5554 5552 5550 5548 5545 5543 5541 5538 5535 5532 5529 5526 5523 5519
Wind_Speed
7 8 10 12 15 16 18 20 22 23 25 26 27 27 27 28 29 29 30 31 32 32 33 33 33 33 33 34 34 35 35 35 35 35 35 36 36 37 37 36 37 37 38 38
6 7 8 10 12 14 16 17 19 20 22 23 24 25 26 27 28 29 29 30 32 32 34 34 34 34 34 34 34 35 35 36 36 35 35 36 36 37 37 37 36 36 37 37
4 6 7 8 10 12 14 16 17 18 20 21 22 23 24 25 27 28 29 30 31 32 33 34 35 34 35 35 35 35 35 35 35 35 36 36 36 36 36 36 37 38 38 37
4 5 7 8 9 10 12 14 16 17 18 19 21 22 22 23 24 25 27 28 30 31 33 34 35 35 35 35 35 35 35 35 35 35 36 36 36 36 36 37 37 37 37 37
4 5 6 8 9 10 11 13 14 15 16 18 19 21 20 21 22 23 25 27 29 30 32 33 34 35 35 35 35 35 35 35 36 36 36 36 36 36 36 37 37 37 37 38
5 5 6 7 8 9 10 12 13 14 15 16 17 19 19 20 20 22 24 25 27 28 30 32 34 35 35 35 35 34 34 35 35 36 36 37 37 37 37 37 36 36 37 37
6 6 7 7 8 9 10 11 12 13 14 14 15 16 17 18 19 21 22 23 25 27 29 31 33 34 34 34 34 34 34 35 35 35 36 36 36 37 37 37 37 37 37 37
7 7 7 8 8 9 10 10 11 12 13 13 14 15 16 17 18 20 21 22 23 25 26 28 30 32 33 34 35 35 36 36 36 36 36 36 37 37 37 37 37 38 38 37
8 8 8 9 9 10 10 11 11 12 13 13 14 14 15 16 18 19 21 22 23 24 25 26 28 30 32 33 34 35 36 36 37 37 37 38 37 37 37 37 37 37 38 37
10 9 9 9 10 11 11 11 12 12 13 14 14 15 16 16 18 19 21 22 23 24 25 26 28 30 31 33 34 35 35 36 36 37 37 37 37 36 36 36 36 36 37 37
11 10 10 10 10 11 11 12 12 13 14 15 16 16 17 17 19 19 20 21 23 24 25 27 28 30 31 31 32 33 33 34 34 35 35 35 35 35 34 35 35 35 36 36
12 12 11 11 11 12 12 13 14 14 15 16 17 16 17 18 19 20 21 22 23 24 25 26 27 28 29 30 31 31 32 33 33 33 33 34 34 34 34 35 35 35 35 35
14 13 13 13 13 13 13 14 15 16 17 17 18 17 18 19 20 20 21 22 22 24 24 25 26 26 28 29 29 30 30 31 31 32 32 32 33 33 34 34 34 34 34 35
15 15 15 15 15 15 15 16 17 18 19 19 19 19 20 20 20 21 22 22 23 24 25 25 25 26 27 28 29 29 30 30 30 30 31 31 31 32 33 33 33 34 35 35
17 17 16 17 17 18 17 17 18 19 19 20 19 20 21 21 22 22 22 23 24 24 25 26 26 27 28 28 28 28 28 29 29 29 30 30 31 31 32 32 33 33 33 34
19 19 18 18 19 19 19 19 19 20 20 21 21 21 22 23 23 23 23 24 25 25 26 27 27 28 28 28 28 28 28 28 28 29 30 30 30 31 31 32 33 33 34 35
21 21 21 20 21 21 20 20 21 22 22 23 23 23 24 24 24 24 25 26 26 27 27 28 28 28 28 28 28 28 28 29 29 29 29 30 31 31 32 32 33 33 33 34
23 23 23 23 22 22 21 21 22 23 24 25 25 25 26 26 26 26 27 28 28 28 28 27 27 28 28 29 29 28 29 29 30 30 30 31 32 32 32 33 34 34 35 35
25 25 26 26 25 24 23 23 24 25 25 26 26 27 28 28 28 27 28 28 28 28 28 28 28 28 28 28 28 28 29 29 30 30 31 31 32 32 33 34 34 35 35 35
27 27 28 28 28 27 26 26 27 28 28 27 28 28 29 29 29 27 28 29 29 29 29 29 29 28 28 28 28 29 29 29 30 31 32 32 32 32 33 34 34 35 35 36
28 29 29 30 30 29 28 28 29 29 30 29 29 29 29 29 29 29 29 29 29 29 29 29 29 29 29 29 29 29 29 30 31 31 32 32 33 33 34 35 35 35 36 36
31 31 31 32 32 31 30 30 31 31 31 31 31 31 30 30 30 30 30 29 30 30 30 30 29 29 29 29 29 29 30 31 31 32 32 33 33 34 34 35 35 35 35 36
33 33 33 34 33 33 33 32 32 32 32 32 32 32 32 31 31 31 30 30 30 30 30 29 29 28 28 28 28 29 29 30 31 31 32 33 33 34 35 35 36 36 36 37
35 35 35 35 34 34 34 34 34 34 34 34 34 34 34 33 33 32 31 31 30 30 30 29 29 28 28 28 28 29 30 30 31 31 32 33 34 35 35 36 37 37 38 38
36 36 37 37 35 35 35 36 36 36 36 35 35 34 34 33 33 33 33 32 31 31 30 30 29 29 29 29 29 30 31 31 32 32 33 34 34 35 35 36 37 38 38 39
37 38 39 38 37 38 37 36 36 36 36 35 35 35 34 34 34 34 34 33 32 32 31 31 31 31 31 31 31 31 32 32 32 33 33 34 34 35 35 36 37 38 38 38
Wind_Direction
224 224 227 228 229 231 235 237 238 240 239 239 241 241 241 243 243 244 244 243 242 243 243 245 247 249 251 254 258 261 262 263 265 267 267 269 271 272 274 275 276 275 275 274
227 228 230 229 234 235 235 238 241 242 241 241 243 241 242 244 245 244 244 244 243 245 246 247 249 250 252 256 260 263 263 264 265 267 268 269 271 273 273 274 275 276 276 276
243 232 230 231 235 234 235 239 242 245 244 245 245 241 241 244 246 246 246 246 246 247 249 249 251 253 255 257 260 264 266 265 266 268 269 270 271 272 273 274 274 276 277 277
257 233 237 239 238 237 236 239 245 249 251 251 249 245 243 245 248 248 249 249 248 250 252 252 254 255 257 259 260 263 266 266 267 267 269 270 271 272 273 274 275 276 277 278
275 250 252 251 246 245 245 246 250 253 256 255 254 253 248 248 250 251 252 252 253 254 255 255 256 257 259 261 261 263 266 267 268 267 268 270 271 272 274 275 276 277 278 279
282 272 259 253 252 249 252 252 253 256 259 260 259 258 255 254 253 254 255 257 256 257 258 258 257 258 259 261 262 264 265 266 267 268 269 270 271 273 274 276 276 277 279 280
296 280 267 260 257 256 255 256 257 259 259 262 261 261 261 260 258 259 259 260 260 260 261 260 258 259 261 261 262 264 265 266 268 269 271 272 272 274 275 276 277 277 279 280
306 289 277 268 263 263 263 261 265 265 266 265 265 264 263 263 262 262 263 264 264 265 265 264 261 260 261 263 264 266 267 268 268 270 272 272 273 275 277 277 278 277 279 279
308 297 286 277 268 267 265 265 265 266 269 269 269 269 268 267 266 266 267 269 269 268 267 265 264 264 264 265 267 267 267 268 269 271 272 274 274 276 277 278 278 278 279 279
308 296 288 281 274 272 270 268 266 270 275 276 272 272 272 272 271 269 269 270 271 271 270 269 267 267 267 268 268 268 268 269 270 271 272 273 273 275 276 277 278 278 279 280
302 297 289 283 278 276 273 270 270 272 274 278 279 278 277 275 273 273 274 274 275 276 274 272 271 270 270 270 270 269 270 270 271 272 273 273 273 274 275 277 278 279 281 281
298 294 290 286 282 278 275 274 275 276 277 279 281 281 279 278 276 276 276 277 278 279 277 276 274 271 270 270 271 271 271 271 272 272 273 274 273 274 275 277 279 279 280 281
298 290 288 285 283 280 276 276 278 279 280 281 282 283 282 281 281 281 281 281 281 281 280 278 276 273 271 270 271 271 271 272 272 273 274 275 275 275 277 278 279 280 280 281
300 295 290 287 285 283 280 279 279 281 282 283 284 284 282 283 284 284 284 284 283 283 282 280 277 275 272 272 272 272 270 271 272 273 275 276 277 277 278 279 280 281 282 282
298 296 293 290 287 285 284 283 282 281 283 284 285 286 286 285 286 286 286 286 285 285 284 282 280 278 275 274 274 273 272 272 273 273 274 276 278 279 280 281 282 283 283 283
296 295 294 291 289 286 285 284 283 282 283 285 286 287 286 287 288 287 287 286 286 286 284 283 281 280 278 276 275 274 273 273 274 274 275 277 278 280 281 283 284 285 285 285
293 293 292 291 288 288 287 286 285 285 284 286 288 288 288 289 287 287 287 287 286 286 286 285 282 281 280 278 276 275 275 275 275 276 277 278 280 281 283 285 286 287 287 288
291 292 292 292 289 289 290 289 287 286 287 287 287 287 288 289 289 287 286 287 287 287 287 286 285 283 282 279 276 276 277 277 277 277 278 280 281 282 284 286 286 287 288 288
288 289 290 291 290 289 290 290 288 287 287 287 287 288 289 290 290 289 288 288 289 289 288 287 287 286 285 282 279 277 278 278 278 279 280 281 282 284 285 287 287 288 289 289
286 286 288 290 290 291 292 290 287 287 287 287 288 288 289 290 290 290 288 288 288 288 288 286 286 285 283 283 281 278 278 279 279 280 281 282 284 285 287 288 289 289 289 289
285 284 285 287 289 290 291 290 289 288 288 287 287 287 288 289 290 290 290 289 288 288 287 286 285 284 284 284 282 280 280 281 281 281 283 284 285 286 288 289 289 289 289 289
284 284 284 285 287 289 290 289 290 289 288 288 288 288 288 289 289 290 289 289 288 287 287 286 285 284 285 285 284 283 282 282 283 284 284 284 285 286 288 289 290 290 290 290
282 283 283 284 287 287 287 288 289 288 287 287 287 287 287 287 287 288 287 287 287 287 286 286 286 285 285 285 286 286 286 285 286 287 286 285 285 287 288 290 291 291 291 291
281 281 282 283 286 285 286 286 286 286 287 287 286 286 286 286 285 285 284 285 285 285 285 286 285 284 284 285 287 288 288 287 287 287 287 287 288 288 289 291 291 291 291 291
282 281 281 283 284 284 283 284 285 286 287 287 286 286 286 286 284 283 283 282 282 283 283 284 284 283 283 284 287 288 289 289 289 289 289 289 290 290 290 291 292 292 292 292
281 281 281 282 283 283 284 284 285 286 287 287 286 284 284 284 283 283 282 282 282 283 282 283 284 284 284 284 285 287 289 290 290 291 291 291 291 292 292 292 293 294 293 293